Regional Weather Roundup
Issued by NWS

Home | Current Version | Previous Version | Graphics & Text | Print | Product List | Glossary On
Versions: 1 2 3 4 5 6 7 8 9 10 11 12 13 14 15 16 17 18 19 20 21 22 23 24 25 26 27 28 29 30 31 32 33 34 35 36 37 38 39 40 41 42 43 44 45 46 47 48 49 50
000
ASUS43 KTOP 190659
RWRKS

WEATHER ROUNDUP FOR KANSAS
NATIONAL WEATHER SERVICE GOODLAND KS
200 AM CDT THU OCT 19 2017

NOTE:  "FAIR" INDICATES FEW OR NO CLOUDS BELOW 12,000 FEET WITH NO
SIGNIFICANT WEATHER AND/OR OBSTRUCTIONS TO VISIBILITY.

KSZ001>006-013>018-027>032-041>047-190800-
NORTHWEST KANSAS

CITY           SKY/WX    TMP DP  RH WIND       PRES   REMARKS
GOODLAND       CLEAR     44  34  67 S9        30.10F
HAYS           CLEAR     46  39  76 NW6       30.05F
HILL CITY      CLEAR     42  37  82 CALM      30.08S
RUSSELL        CLEAR     52  42  69 N6        30.03S
$$

KSZ061>065-074>080-084>089-190800-
SOUTHWEST KANSAS

CITY           SKY/WX    TMP DP  RH WIND       PRES   REMARKS
DODGE CITY     CLEAR     51  44  77 CALM      30.06F
ELKHART          N/A     60  45  57 S8          N/A
GARDEN CITY    CLEAR     51  39  63 NE6       30.07S
GREAT BEND     CLEAR     50  46  86 S9        30.04F
LIBERAL        CLOUDY    50  45  83 W5        30.07S
$$

KSZ066>073-081>083-090>101-190800-
SOUTHEAST KANSAS

CITY           SKY/WX    TMP DP  RH WIND       PRES   REMARKS
CHANUTE        CLEAR     53  47  79 SE7       30.09S
COFFEYVILLE    CLEAR     51  48  89 SE5       30.09R
HUTCHINSON     CLEAR     52  47  83 E3        30.05S
MEDICINE LODGE   N/A     57  45  64 CALM      30.05S
NEWTON         CLEAR     56  48  74 S10       30.06S
PARSONS        CLEAR     50  47  89 SE3       30.10S
WICHITA INTL   PTCLDY    53  49  86 S9        30.05F
WICHITA JABRA  CLEAR     56  50  80 S8        30.06R
WICHITA MCCONL CLEAR     53  46  77 SW7       30.06S
WINFIELD       CLEAR     57  50  77 S5        30.08R
$$

KSZ007>012-019>026-033>040-048>060-102>105-190800-
NORTHEAST KANSAS

CITY           SKY/WX    TMP DP  RH WIND       PRES   REMARKS
CONCORDIA      CLEAR     50  47  89 NE3       30.03S
EMPORIA        CLEAR     55  48  77 S7        30.06R
LAWRENCE       CLEAR     49  48  97 E3        30.06R
MANHATTAN      CLEAR     47  46  97 CALM      30.04R
OLATHE IND     CLEAR     51  48  89 S6        30.08R
OLATHE EXE     CLEAR     54  48  80 S6        30.07R
SALINA         CLEAR     53  50  89 S3        30.03S
TOPEKA BILLARD CLEAR     53  52  96 CALM      30.05R
TOPEKA FORBES  CLEAR     56  51  84 S8        30.05R
$$



USA.gov is the U.S. government's official web portal to all federal, state and local government web resources and services.